Simultaneous Nadir Overpasses (SNOs) Predictions

Prediction of SNOs between METOP-B and NOAA-19 Satellite Orbit:

Table of predicted SNOs for the next 14.0 days since TLE Epoch: 1/16/2016
Index Date (METOP-B) Time (METOP-B) Lat,Lon (METOP-B) SZA (METOP-B ) Date (NOAA-19) Time (NOAA-19) Lat,Lon (NOAA-19) SZA (NOAA-19 ) Distance(km) Time Diff (sec)
1 01/18/2016 19:32:34 75.93,-113.30 96.39 01/18/2016 19:31:24 75.94,-115.07 96.44 47.77 70
2 01/18/2016 20:23:22 -75.63, 53.07 83.90 01/18/2016 20:22:20 -75.64, 53.20 83.89 3.62 62
3 01/18/2016 21:14:02 75.62,-139.62 96.09 01/18/2016 21:13:20 75.66,-139.60 96.12 3.69 42
4 01/18/2016 22:04:44 -75.61, 27.67 83.94 01/18/2016 22:04:22 -75.63, 27.73 83.92 2.92 22
5 01/18/2016 22:55:24 75.60,-165.02 96.05 01/18/2016 22:55:21 75.60,-164.91 96.05 3.17 3
6 01/18/2016 23:46:06 -75.59, 2.26 83.97 01/18/2016 23:46:24 -75.62, 2.26 83.94 3.39 18
7 01/19/2016 00:36:46 75.58, 169.57 96.02 01/19/2016 00:37:23 75.58, 169.63 96.02 1.68 37
8 01/19/2016 01:27:28 -75.57, -23.15 84.01 01/19/2016 01:28:25 -75.56, -23.05 84.02 2.75 57
9 01/19/2016 02:18:10 75.46, 143.87 95.89 01/19/2016 02:19:23 75.48, 144.46 95.90 16.60 73
10 01/29/2016 09:47:05 -75.72,-147.62 86.30 01/29/2016 09:45:53 -75.71,-147.69 86.31 2.48 72
11 01/29/2016 10:37:45 75.71, 19.69 93.68 01/29/2016 10:36:55 75.69, 19.59 93.67 3.15 50
12 01/29/2016 11:28:27 -75.70,-173.03 86.34 01/29/2016 11:27:55 -75.69,-173.16 86.34 3.61 32
13 01/29/2016 12:19:08 75.64, -5.87 93.60 01/29/2016 12:18:56 75.64, -5.72 93.59 4.18 12
14 01/29/2016 13:09:50 -75.63, 161.41 86.43 01/29/2016 13:09:56 -75.64, 161.52 86.42 3.19 6
15 01/29/2016 14:00:30 75.62, -31.28 93.56 01/29/2016 14:00:58 75.62, -31.19 93.56 2.62 28
16 01/29/2016 14:51:12 -75.61, 136.01 86.47 01/29/2016 14:51:58 -75.63, 136.05 86.45 2.57 46
17 01/29/2016 15:41:52 75.60, -56.69 93.52 01/29/2016 15:43:00 75.61, -56.66 93.53 1.95 68
18 01/29/2016 16:32:44 -75.11, 109.18 86.95 01/29/2016 16:33:50 -75.16, 112.06 86.96 82.41 66




NCC Satellite Simultaneous Nadir Overpasses (SNOs) Prediction Service
